Imperial, CA

2:16 AM PDT on April 27, 2018 (GMT -0700)
Imperial County

Weather History for KIPL - March, 2013

Change the Weather History Date:

Tuesday, March 19, 2013

  Actual Average Record
Temperature  
Mean Temperature 74 °F -  
Max Temperature 91 °F 80 °F 96 °F (2017)
Min Temperature 59 °F 51 °F 37 °F (2002)
Cooling Degree Days 10    
Growing Degree Days 24 (Base 50)    
Moisture  
Dew Point 42 °F    
Average Humidity 36    
Maximum Humidity 75    
Minimum Humidity 11    
Precipitation  
Precipitation 0.00 in - - ()
Sea Level Pressure  
Sea Level Pressure 29.92 in    
Wind  
Wind Speed 5 mph (WNW)    
Max Wind Speed 13 mph    
Max Gust Speed -    
Visibility 10 miles    
Events      
Averages and records for this station are not official NWS values.
T = Trace of Precipitation, MM = Missing Value Source: NWS Daily Summary

Daily Weather History Graph

Daily Weather History Graph

Search for Another Location

Airport or City:

Astronomy

Mar. 19, 2013 Rise Set
Actual Time 6:46 AM PDT 6:53 PM PDT
Civil Twilight 6:22 AM PDT 7:18 PM PDT
Nautical Twilight 5:53 AM PDT 7:46 PM PDT
Astronomical Twilight 5:24 AM PDT 8:15 PM PDT
Moon 11:58 AM PDT (3/19) 1:26 AM PDT (3/19)
Length of Visible Light 12h 55m
Length of Day
12h 06m
Waxing Crescent, 51% of the Moon is Illuminated
Mar 19
Waxing Crescent
Mar 27
Full
Apr 2
Last Quarter
Apr 10
New
Apr 18
First Quarter

Hourly Weather History & Observations

Time (PDT) Temp. Dew Point Humidity Pressure Visibility Wind Dir Wind Speed Gust Speed Precip Events Conditions
12:53 AM 64.9 °F 39.0 °F 39% 29.90 in 10.0 mi West 9.2 mph - N/A   Clear
1:53 AM 66.0 °F 39.0 °F 37% 29.88 in 10.0 mi West 6.9 mph - N/A   Clear
2:53 AM 64.9 °F 37.9 °F 37% 29.88 in 10.0 mi West 5.8 mph - N/A   Clear
3:53 AM 62.1 °F 37.9 °F 41% 29.86 in 10.0 mi West 3.5 mph - N/A   Clear
4:53 AM 60.1 °F 46.0 °F 60% 29.88 in 10.0 mi Calm Calm - N/A   Clear
5:53 AM 59.0 °F 51.1 °F 75% 29.91 in 10.0 mi ENE 4.6 mph - N/A   Clear
6:53 AM 60.1 °F 50.0 °F 69% 29.92 in 10.0 mi Calm Calm - N/A   Clear
7:53 AM 61.0 °F 48.9 °F 64% 29.94 in 10.0 mi South 3.5 mph - N/A   Clear
8:53 AM 66.9 °F 50.0 °F 54% 29.96 in 10.0 mi WSW 3.5 mph - N/A   Clear
9:53 AM 73.0 °F 46.9 °F 39% 29.96 in 10.0 mi Calm Calm - N/A   Clear
10:53 AM 78.1 °F 45.0 °F 31% 29.96 in 10.0 mi North 4.6 mph - N/A   Clear
11:53 AM 81.0 °F 46.9 °F 30% 29.95 in 10.0 mi Calm Calm - N/A   Clear
12:33 PM 82.4 °F 44.6 °F 26% 29.93 in 10.0 mi Calm Calm - N/A   Partly Cloudy
12:53 PM 84.9 °F 43.0 °F 23% 29.93 in 10.0 mi Variable 3.5 mph - N/A   Clear
1:53 PM 87.1 °F 39.0 °F 18% 29.91 in 10.0 mi NW 6.9 mph - N/A   Clear
2:53 PM 89.1 °F 36.0 °F 15% 29.89 in 10.0 mi NW 5.8 mph - N/A   Clear
3:53 PM 90.0 °F 30.0 °F 12% 29.88 in 10.0 mi NNE 5.8 mph - N/A   Clear
4:53 PM 90.0 °F 28.9 °F 11% 29.88 in 10.0 mi North 9.2 mph - N/A   Clear
5:53 PM 88.0 °F 30.9 °F 13% 29.88 in 10.0 mi North 4.6 mph - N/A   Clear
6:53 PM 82.9 °F 37.9 °F 20% 29.89 in 10.0 mi SW 6.9 mph - N/A   Clear
7:53 PM 77.0 °F 42.1 °F 29% 29.91 in 10.0 mi WSW 12.7 mph - N/A   Clear
8:53 PM 73.9 °F 44.1 °F 34% 29.93 in 10.0 mi WSW 10.4 mph - N/A   Clear
9:53 PM 72.0 °F 44.1 °F 37% 29.95 in 10.0 mi West 8.1 mph - N/A   Clear
10:53 PM 69.1 °F 44.1 °F 40% 29.97 in 10.0 mi West 6.9 mph - N/A   Clear
11:53 PM 66.9 °F 43.0 °F 42% 29.96 in 10.0 mi WNW 3.5 mph - N/A   Clear